GFSNIL_925_spd_000.txt.gz
Wind_Speed
10 13 14 15 16 15 15 17 20 18 19 15 12 12 12 11 11 11 12 14 14 16
11 13 13 11 11 14 13 13 18 20 19 18 16 14 14 14 16 17 20 23 17 18
16 10 10 12 15 10 15 19 19 17 18 20 18 16 19 20 18 19 18 17 16 20
13 12 13 13 12 15 16 18 19 20 20 20 20 20 18 20 17 16 19 19 18 17
15 15 17 14 15 16 16 15 17 19 20 20 20 20 19 20 18 20 19 22 23 23
15 15 15 16 14 13 15 17 18 19 20 20 21 21 19 19 15 15 19 22 26 26
12 10 10 13 13 16 17 19 19 19 18 19 20 20 13 13 17 19 20 22 28 30
14 10 11 8 11 16 18 17 17 19 20 21 19 11 16 15 16 19 22 24 26 28
20 14 8 10 13 16 17 16 19 19 20 18 13 16 16 20 23 21 23 26 27 28
9 11 7 12 13 18 17 19 19 20 18 13 14 12 19 20 21 18 23 26 27 26
10 9 13 7 10 18 18 20 21 18 14 13 12 20 25 21 19 20 21 24 27 26
5 13 9 9 12 18 20 21 14 14 14 17 22 24 21 17 16 18 21 24 25 25
14 13 11 12 16 16 17 16 14 12 14 17 24 20 15 14 15 19 22 23 23 23
17 16 15 13 15 15 18 17 11 14 21 21 19 15 15 12 16 18 22 23 24 24

GFSNIL_925_spd_003.txt.gz
Wind_Speed
12 10 10 14 17 13 15 7 10 15 14 12 14 13 16 18 20 21 22 23 22 23
11 12 18 17 14 12 9 12 13 15 16 18 19 20 22 25 26 24 19 18 19 17
12 14 11 8 8 10 14 18 17 18 19 20 21 20 21 21 20 20 20 21 19 19
13 8 3 4 5 8 12 17 16 16 18 19 18 17 18 19 21 21 22 21 19 20
13 9 10 8 5 6 7 8 8 13 16 17 17 19 18 15 10 9 14 17 20 24
13 12 15 6 4 3 5 8 10 10 11 14 16 15 14 10 12 15 17 20 23 26
20 20 5 2 4 8 10 12 10 8 14 18 17 15 12 11 12 15 19 22 25 28
25 8 4 1 2 11 13 9 8 14 15 16 12 13 12 11 14 19 23 24 25 25
15 5 7 11 15 13 4 8 13 15 16 14 10 12 10 14 21 23 20 23 27 25
14 13 9 7 20 8 9 11 17 17 8 7 9 9 17 21 19 18 18 20 25 25
17 13 9 9 11 7 11 15 14 4 8 7 13 17 16 15 16 15 18 20 24 22
13 13 11 16 14 13 12 11 7 5 9 15 17 15 13 17 16 15 18 19 21 22
19 17 17 17 22 14 11 13 5 10 14 15 14 12 16 14 14 18 19 20 21 22
21 22 24 23 5 13 13 6 8 10 12 14 14 17 11 12 18 19 18 20 20 22

GFSNIL_925_spd_006.txt.gz
Wind_Speed
9 7 11 16 16 16 7 4 6 6 8 10 13 14 15 15 14 16 18 19 18 21
17 17 18 21 14 9 8 2 4 8 12 13 16 14 14 14 15 15 16 18 19 20
12 14 12 17 11 11 7 3 5 13 12 9 11 12 12 13 14 15 16 16 14 13
19 18 14 7 6 5 4 8 8 8 7 9 9 9 10 11 10 9 6 7 12 16
22 18 16 11 8 12 13 5 6 9 9 11 11 10 11 12 7 5 6 10 15 21
26 28 24 16 13 5 2 10 23 10 11 11 14 16 14 7 5 6 8 14 18 19
27 25 17 5 3 8 12 14 21 11 11 15 15 14 10 8 6 9 16 20 17 19
22 18 13 16 19 15 16 13 11 11 14 15 15 13 9 6 11 18 18 19 17 18
19 17 15 15 15 17 18 7 7 16 15 12 9 10 8 16 16 16 17 16 18 20
18 17 18 17 14 18 12 15 17 12 4 6 6 9 13 14 14 15 15 16 19 19
16 19 18 10 12 13 13 18 9 2 2 6 8 10 10 11 14 14 15 17 19 22
17 18 20 19 22 17 20 7 3 2 4 6 9 8 10 11 12 15 19 21 19 20
16 18 21 22 21 17 6 3 5 4 6 8 8 11 9 13 18 20 18 18 19 17
16 16 13 10 6 9 3 8 6 5 6 8 11 12 11 15 16 17 17 18 17 21

GFSNIL_925_spd_009.txt.gz
Wind_Speed
13 15 17 18 21 21 22 18 11 4 5 12 8 7 8 8 9 9 10 11 12 13
17 17 19 19 22 19 12 8 7 2 11 8 10 9 9 8 9 10 11 13 13 13
17 18 21 22 23 15 11 10 7 12 14 6 13 11 10 12 11 14 16 14 12 11
17 19 21 23 20 16 12 6 6 5 8 14 11 9 13 14 17 17 14 9 10 14
20 21 23 23 16 8 9 5 7 9 16 16 14 12 14 16 15 10 11 11 14 19
22 23 23 21 16 18 15 17 22 24 22 18 14 14 16 15 12 13 10 14 19 19
19 19 19 18 14 18 22 21 18 18 17 14 15 15 16 13 11 11 17 20 19 18
16 17 17 19 20 22 19 16 18 13 10 17 14 14 11 10 11 17 19 19 20 19
17 18 18 18 18 16 18 19 9 15 15 16 8 6 7 12 16 18 18 22 21 20
16 17 18 18 15 14 13 8 14 16 11 3 3 7 10 13 15 17 19 19 21 22
18 20 19 18 16 17 15 11 18 8 3 2 7 9 9 11 14 15 17 21 22 21
19 21 21 22 21 16 14 11 4 4 1 4 7 9 9 11 13 17 20 18 20 18
20 19 18 17 11 6 5 3 5 2 2 4 6 8 9 12 15 16 18 21 19 16
15 13 12 13 13 9 7 5 6 1 1 2 5 7 10 11 13 16 17 19 18 19

GFSNIL_925_spd_012.txt.gz
Wind_Speed
10 11 14 18 20 23 26 23 17 10 9 5 11 9 9 10 10 9 10 11 12 14
12 14 16 19 22 24 25 23 10 11 6 16 5 9 12 11 13 12 13 14 15 16
15 17 18 20 22 22 20 11 10 8 12 6 7 11 16 14 12 14 16 15 15 13
14 15 17 20 20 19 17 14 14 14 14 10 13 16 17 16 15 16 16 15 13 13
12 14 17 19 19 18 15 15 18 15 11 15 19 15 16 17 17 17 14 13 13 17
12 15 17 19 19 18 18 16 14 14 18 16 12 11 14 16 16 13 13 14 17 21
13 15 18 20 20 20 20 19 19 16 17 9 7 13 15 14 11 12 14 18 20 21
14 16 19 21 21 21 20 18 18 16 8 9 11 17 9 7 10 14 18 21 22 23
16 17 20 23 22 20 18 17 18 8 13 13 12 3 4 9 14 17 20 23 21 23
18 18 22 23 22 21 19 17 12 12 13 4 1 5 8 12 15 17 18 20 23 21
18 19 24 24 23 24 20 17 14 11 3 0 3 7 11 14 14 17 19 19 18 19
16 20 23 22 21 17 12 8 4 3 2 3 4 8 11 11 15 16 17 17 18 16
16 20 19 18 13 14 11 7 5 6 3 2 4 8 9 10 13 15 18 20 18 15
22 20 16 16 15 15 12 7 7 4 3 4 5 6 8 9 11 15 17 18 19 18

GFSNIL_925_spd_018.txt.gz
Wind_Speed
9 7 7 9 12 14 16 18 19 18 16 13 11 8 9 12 10 10 10 10 12 13
7 6 6 9 12 14 16 17 17 16 13 11 12 11 12 13 13 13 12 13 13 15
3 4 6 9 13 14 16 17 17 16 14 15 16 16 15 17 16 15 14 16 16 18
2 2 6 9 13 14 16 17 17 16 16 16 16 17 19 20 19 16 15 16 17 18
1 4 7 10 13 14 16 17 17 16 16 16 18 21 22 18 13 13 15 16 17 19
5 6 9 11 14 15 17 17 17 16 16 16 17 18 15 10 11 13 13 11 14 18
8 9 10 12 14 16 17 17 17 16 16 16 14 11 10 10 11 10 8 10 14 19
9 10 12 14 15 17 18 17 17 16 15 11 10 9 10 10 9 9 12 14 16 16
10 12 14 15 15 16 18 17 16 15 15 12 8 8 6 5 9 12 14 15 15 16
10 13 15 15 15 17 17 15 13 13 11 9 5 5 5 7 9 12 13 13 14 15
12 14 15 15 15 17 15 12 12 11 7 5 5 6 6 9 9 12 11 12 13 14
10 13 14 15 16 16 14 13 12 9 8 7 6 6 6 8 9 10 11 11 12 12
12 13 15 16 16 13 12 12 10 9 8 8 7 8 6 6 8 10 12 12 12 11
11 12 14 14 11 11 11 10 9 7 8 8 8 8 8 7 6 9 11 13 13 12

GFSNIL_925_spd_021.txt.gz
Wind_Speed
7 4 2 2 6 7 10 11 14 15 17 17 15 14 10 14 17 14 14 15 14 16
7 5 1 2 5 7 9 12 14 15 16 16 14 16 15 17 18 17 14 17 14 14
8 5 2 3 6 9 10 12 14 15 16 17 17 17 19 19 21 21 15 19 14 15
7 6 5 6 7 9 12 13 15 16 16 16 17 17 19 22 21 21 18 16 14 15
9 8 8 8 9 11 13 14 16 17 17 17 17 16 18 21 19 16 15 12 14 16
11 10 10 10 11 12 13 15 17 17 17 16 16 16 18 16 14 12 12 14 13 16
11 11 12 12 13 14 14 16 17 17 18 17 17 14 11 11 12 12 12 10 13 17
12 12 13 14 14 15 14 16 17 17 17 17 14 10 7 10 10 10 11 14 17 18
12 12 14 14 15 16 15 16 16 16 15 14 9 6 10 6 7 12 14 17 17 16
12 13 14 15 16 16 16 16 16 14 11 11 3 6 6 5 8 12 14 15 14 15
11 14 14 15 16 16 16 16 14 13 11 10 5 8 8 7 8 12 12 12 13 13
10 12 15 16 16 16 16 15 14 13 10 10 8 11 8 7 9 11 11 12 12 11
10 12 15 15 15 16 14 14 13 12 10 9 5 9 11 8 8 10 11 11 11 10
12 13 14 14 15 13 13 12 11 10 10 10 8 10 11 10 7 9 10 11 11 10

GFSNIL_925_spd_024.txt.gz
Wind_Speed
13 9 10 10 6 2 3 6 9 10 13 14 16 16 13 14 14 14 15 17 17 15
11 13 12 7 4 2 4 6 9 12 13 15 17 18 15 17 17 18 17 15 14 15
15 13 10 7 4 2 4 6 10 12 13 14 15 16 18 15 15 16 17 16 16 17
15 14 10 7 5 3 6 8 10 13 14 16 17 17 13 14 17 16 18 17 10 11
16 13 13 8 5 6 7 9 11 13 16 16 18 15 15 16 17 13 14 11 8 8
16 13 10 7 6 7 9 10 10 14 16 17 18 14 11 10 11 10 10 10 9 10
18 16 8 6 7 9 11 11 11 14 15 18 18 14 8 7 8 12 10 8 8 12
12 6 8 8 9 10 11 13 14 13 14 16 14 8 4 5 10 9 7 9 12 14
6 7 5 9 10 13 15 14 13 13 14 10 8 7 5 7 4 7 12 12 12 13
5 6 9 11 11 13 15 14 14 14 12 11 8 8 6 4 5 7 11 12 12 13
9 7 9 11 14 15 13 13 15 14 12 9 9 9 7 6 5 6 11 10 11 12
6 10 12 12 13 13 15 16 14 15 12 8 10 9 9 7 4 6 10 10 11 12
11 11 13 14 14 16 15 15 13 8 8 6 6 7 9 7 6 6 9 10 10 14
9 10 12 15 15 15 16 17 16 13 11 9 9 10 11 11 11 7 8 8 10 8

GFSNIL_925_spd_027.txt.gz
Wind_Speed
20 18 13 12 11 9 6 2 2 5 7 10 12 13 13 15 14 14 15 13 12 13
15 12 14 13 9 6 3 2 2 7 8 10 13 15 15 14 16 12 11 11 12 14
11 13 14 11 9 6 3 4 5 6 9 11 14 15 17 11 7 10 9 12 12 12
13 13 13 10 10 6 5 4 6 8 10 13 15 17 9 12 13 13 10 8 6 4
14 14 13 11 9 7 7 5 6 7 9 13 14 15 16 15 12 9 7 5 3 2
15 15 13 12 10 8 6 6 8 9 10 13 15 16 14 7 6 6 5 5 5 5
17 18 13 15 8 5 6 7 9 11 13 12 14 13 6 5 4 4 5 4 4 8
14 18 15 5 3 2 7 11 15 17 13 12 9 9 11 9 9 7 2 6 6 6
9 11 9 4 6 7 8 11 15 13 12 11 11 10 10 8 7 6 5 7 7 7
11 5 6 7 12 14 17 16 11 11 12 13 13 11 9 8 7 6 4 6 8 9
9 6 9 9 11 15 14 14 14 15 13 15 13 11 12 11 8 6 6 7 8 8
14 10 6 9 16 15 14 18 19 18 15 10 9 10 11 10 9 7 8 9 8 8
8 4 10 13 11 15 18 17 16 14 10 12 12 10 13 14 12 10 9 8 8 9
3 9 9 10 16 10 13 18 19 21 18 16 16 12 14 15 14 12 10 11 11 9

GFSNIL_925_spd_030.txt.gz
Wind_Speed
30 30 28 23 18 15 11 7 4 4 7 7 8 10 11 11 10 10 9 10 11 12
26 23 19 15 12 11 8 5 1 4 6 8 9 12 12 15 13 8 8 11 11 14
19 15 15 15 12 10 7 5 2 7 4 7 10 12 14 14 7 9 10 10 11 11
20 17 17 14 12 11 8 5 7 6 6 7 10 12 13 13 14 13 9 8 9 6
20 19 20 17 15 14 9 12 9 8 8 9 11 12 14 15 13 12 10 8 6 5
22 22 22 19 17 16 14 12 11 10 10 12 12 11 13 15 11 9 5 9 7 6
25 23 23 19 15 17 15 11 9 11 14 14 13 12 14 11 10 9 9 6 6 6
24 22 22 19 16 13 6 3 8 12 15 17 14 14 14 12 10 10 7 6 5 5
21 18 16 17 13 7 5 4 9 16 17 13 16 15 14 12 10 10 9 8 8 8
20 22 17 13 10 10 6 12 14 12 13 14 14 16 16 13 12 12 10 9 9 9
22 21 18 14 9 4 11 13 11 15 16 17 15 15 16 14 13 12 11 10 10 12
20 15 10 6 3 11 7 10 15 13 15 16 16 12 15 16 17 15 13 11 12 13
7 4 1 5 9 8 13 9 10 16 16 15 17 15 15 17 18 16 15 13 12 13
3 1 7 8 10 11 7 12 14 13 14 15 15 20 17 18 20 20 18 16 15 14

GFSNIL_925_spd_033.txt.gz
Wind_Speed
27 29 29 31 27 23 20 15 12 3 11 4 4 5 7 7 7 8 9 10 10 10
28 28 30 28 23 20 17 13 4 3 3 3 4 5 8 8 8 6 6 8 12 12
27 29 32 30 28 23 17 15 10 9 5 5 6 7 8 8 6 8 11 11 12 12
32 30 28 27 25 22 19 18 14 10 12 10 9 8 7 8 10 12 13 11 11 11
31 29 28 28 25 20 20 17 13 13 11 10 10 9 11 10 11 12 12 10 8 9
31 30 31 28 25 23 22 19 17 13 11 11 12 15 14 14 13 13 13 13 11 9
33 33 31 29 27 24 22 18 14 9 10 12 17 18 17 15 15 12 13 14 13 12
34 30 27 25 20 19 14 10 6 5 11 17 20 19 17 17 15 14 14 13 12 12
19 15 11 10 15 15 11 7 2 10 14 16 13 14 17 18 18 16 15 14 13 13
14 18 23 20 15 10 5 3 6 11 15 14 14 14 17 20 19 17 17 17 15 14
27 25 17 13 8 2 3 7 8 13 15 15 15 15 16 19 20 20 19 18 16 14
18 13 7 3 6 8 5 7 12 13 12 15 17 16 15 17 21 22 22 19 17 16
9 8 5 1 3 6 10 14 12 13 17 17 17 16 19 20 23 25 23 21 20 18
0 2 2 6 10 11 14 12 15 17 16 15 13 18 18 20 23 26 26 26 24 21

GFSNIL_925_spd_036.txt.gz
Wind_Speed
33 29 30 34 36 33 29 26 23 16 4 9 5 3 2 4 4 6 7 8 10 11
33 33 35 36 35 33 29 27 24 12 5 6 3 3 2 4 5 7 7 8 11 13
32 34 35 35 36 34 31 28 20 11 11 8 8 4 4 5 8 10 10 12 13 13
32 31 29 31 36 34 32 27 16 16 13 14 9 9 8 9 10 11 11 13 14 13
28 25 26 32 35 35 33 23 18 16 17 14 10 10 10 13 13 12 13 14 15 13
27 28 31 33 35 32 28 18 20 17 16 13 11 10 14 16 15 15 15 16 16 15
29 26 25 24 24 24 19 20 22 17 14 10 5 14 20 19 19 19 18 17 17 17
23 22 21 19 20 18 16 15 10 5 4 4 14 19 21 23 22 21 19 18 18 18
15 12 13 15 17 16 19 17 10 4 6 13 16 19 19 18 21 22 22 20 19 19
11 13 16 19 19 17 13 8 3 2 11 13 15 20 19 19 20 23 24 22 22 21
21 24 21 16 14 9 7 8 9 8 10 17 18 15 17 18 19 22 25 25 23 23
22 19 14 10 7 4 10 11 9 10 17 16 19 20 19 19 19 21 24 25 24 24
12 7 4 1 6 7 9 11 14 17 15 18 19 14 13 16 19 22 25 26 26 25
3 3 6 5 6 10 12 15 17 16 20 21 18 19 17 16 18 21 25 28 27 27

GFSNIL_925_spd_039.txt.gz
Wind_Speed
31 31 29 29 33 34 34 32 30 28 22 17 11 6 6 10 7 7 6 6 7 6
28 28 31 31 31 34 35 33 31 28 23 15 11 10 11 8 6 6 5 6 6 8
24 26 31 31 31 31 35 35 34 29 20 16 13 14 12 6 5 5 6 8 9 12
24 26 27 28 30 34 37 33 32 28 21 16 14 13 7 4 3 12 10 12 14 13
24 25 27 29 31 32 34 29 30 24 20 17 17 13 8 4 10 17 15 16 14 14
16 17 18 22 23 25 25 28 33 23 22 19 18 11 9 11 16 18 20 18 16 16
11 12 13 16 18 24 28 29 28 24 20 16 12 8 8 18 19 20 22 22 19 17
9 10 11 12 13 16 20 21 19 16 15 9 4 9 19 18 19 20 20 22 21 20
10 9 10 10 12 13 13 15 14 11 5 2 14 19 21 17 22 21 21 19 20 22
12 13 13 15 19 22 20 14 10 4 16 19 20 20 16 21 20 19 19 19 19 19
16 19 21 21 16 13 10 6 9 13 17 17 17 15 17 20 22 21 21 20 21 21
18 17 15 12 7 4 5 9 12 15 13 13 15 15 19 18 17 18 19 21 21 21
12 9 7 3 1 5 6 8 8 11 13 16 17 19 20 18 18 18 17 18 21 25
8 7 5 4 3 5 7 9 12 15 16 18 21 24 22 21 22 21 19 18 19 20

GFSNIL_925_spd_042.txt.gz
Wind_Speed
22 25 23 24 22 23 26 24 27 26 23 19 16 15 12 13 10 10 9 9 10 10
24 23 22 22 21 21 27 27 26 28 24 20 19 15 13 8 11 10 9 9 9 11
18 19 19 20 22 24 24 25 22 24 22 18 19 17 15 11 12 7 7 9 10 10
17 17 17 19 19 20 22 25 26 26 23 22 22 19 14 12 9 8 11 12 12 12
13 11 13 14 14 14 17 24 21 23 23 24 18 15 17 13 9 7 13 15 16 16
9 9 10 13 14 16 18 19 18 19 17 13 12 15 13 10 7 17 16 18 19 20
7 8 8 8 9 12 12 14 17 18 16 15 13 13 8 11 20 20 19 20 22 23
6 6 6 6 7 8 10 12 15 15 18 15 14 12 16 17 18 19 20 21 22 23
9 9 9 9 9 10 12 14 18 14 14 15 15 15 19 23 22 19 22 23 22 22
11 11 12 12 13 14 13 13 13 13 13 14 15 21 22 24 17 20 22 22 23 23
13 14 13 13 12 11 10 8 8 9 11 13 13 18 18 17 18 21 23 23 23 24
15 14 12 10 8 5 4 4 5 6 11 14 15 13 17 16 18 21 22 22 23 23
12 10 8 5 3 1 2 3 4 6 9 12 14 15 17 19 19 22 24 24 24 23
11 10 7 5 3 2 3 4 6 8 10 11 13 16 18 21 19 21 25 27 27 26

GFSNIL_925_spd_045.txt.gz
Wind_Speed
30 31 23 23 27 28 25 23 20 24 27 25 21 20 18 19 15 10 6 9 7 11
31 22 20 19 24 26 24 21 24 30 28 25 23 21 16 16 12 9 8 7 7 11
26 18 18 18 21 25 21 22 25 29 29 27 21 19 17 13 11 9 8 3 8 14
19 16 18 18 18 20 20 21 21 20 22 22 20 17 15 13 13 13 5 6 13 16
18 15 15 17 18 19 18 20 20 22 24 19 19 19 16 13 12 10 4 12 14 20
16 14 12 13 15 15 17 17 17 18 19 21 16 17 15 14 15 11 18 15 17 20
11 9 9 8 9 10 11 11 13 16 18 17 20 16 17 15 16 19 14 17 20 22
9 10 10 10 9 9 9 11 13 14 14 16 17 21 20 17 16 13 14 21 22 23
12 12 11 11 11 11 11 11 14 13 15 17 13 14 15 14 9 17 18 24 22 23
14 14 13 12 12 11 10 11 10 9 9 8 7 9 12 16 18 20 23 21 22 24
15 15 14 13 13 11 10 9 7 5 3 4 6 9 13 15 16 17 19 21 24 25
16 15 14 13 11 9 8 7 5 5 4 7 10 11 9 10 13 17 21 23 24 26
14 12 11 10 8 4 4 4 3 2 3 4 8 9 9 9 14 19 22 23 26 28
11 10 9 9 7 5 4 2 1 2 4 6 6 8 6 8 11 16 21 24 26 28

GFSNIL_925_spd_048.txt.gz
Wind_Speed
34 31 30 26 26 22 19 35 29 27 25 25 24 21 20 21 18 15 12 12 7 8
37 27 26 22 25 27 25 26 30 24 27 25 25 24 23 22 18 14 12 11 9 6
39 35 23 17 18 20 22 25 27 28 27 27 24 24 25 22 17 14 12 10 7 4
30 26 20 18 16 18 20 27 26 24 22 24 25 26 25 17 16 16 14 8 1 11
29 22 19 19 18 18 23 23 21 17 18 22 26 25 20 19 17 19 16 13 13 16
25 19 19 18 17 18 18 15 14 18 21 22 22 20 14 16 21 21 17 17 15 16
21 18 14 14 14 14 15 16 19 16 18 20 20 19 19 23 23 22 19 16 16 19
16 13 11 10 10 10 11 12 14 16 18 20 17 18 22 21 21 18 15 17 19 21
21 18 15 16 16 16 14 15 16 16 16 16 18 18 15 13 11 13 14 17 23 26
19 18 16 17 16 17 16 16 13 12 12 12 9 7 9 9 13 15 18 20 20 21
18 18 17 17 17 15 15 13 12 10 7 7 9 7 7 8 10 11 13 16 18 21
19 20 19 18 17 15 14 12 13 11 6 4 3 5 4 5 5 9 12 15 17 20
19 19 18 17 15 14 13 10 8 7 7 6 3 8 4 2 3 6 12 18 23 25
19 18 16 14 13 13 11 13 10 7 6 4 3 6 2 5 7 11 16 18 19 21

GFSNIL_925_spd_051.txt.gz
Wind_Speed
44 43 42 35 28 31 36 34 20 25 21 23 23 22 23 22 23 21 20 14 13 12
47 35 39 36 31 24 26 28 21 23 19 24 21 24 25 24 22 22 20 19 16 13
48 34 33 28 24 21 20 24 22 20 20 26 25 25 25 23 24 22 16 14 17 16
40 41 34 24 20 18 18 19 19 20 25 26 26 25 24 26 22 17 15 19 16 10
39 33 28 20 21 19 20 19 19 21 24 24 24 25 26 23 19 18 21 18 13 9
30 34 32 25 24 21 22 21 20 22 21 22 23 25 25 22 18 20 19 17 17 8
28 32 31 26 20 19 20 22 23 21 20 21 23 23 22 17 18 17 21 19 10 12
27 25 25 23 20 20 20 19 19 20 20 19 20 20 18 16 15 22 19 10 15 16
26 23 21 20 18 16 16 17 17 16 17 17 17 16 13 13 16 14 13 15 15 16
26 25 22 20 20 19 18 17 17 17 16 16 13 13 14 13 12 11 10 12 14 13
28 28 27 25 24 21 20 18 17 17 16 17 15 13 13 12 10 9 7 6 7 6
28 27 26 26 24 23 21 20 19 17 17 17 15 12 10 9 7 5 6 8 10 13
26 28 27 25 24 22 21 21 20 15 12 12 13 13 11 10 8 6 6 9 12 13
29 30 29 26 24 23 19 18 16 16 17 18 15 12 8 5 1 3 7 11 15 17

GFSNIL_925_spd_054.txt.gz
Wind_Speed
46 42 40 36 41 42 40 42 37 33 34 29 23 25 26 27 28 28 28 25 21 21
44 41 38 38 42 44 37 37 39 37 32 26 25 23 26 29 28 26 26 22 21 18
43 43 40 37 42 39 35 31 39 36 28 27 26 26 28 27 26 26 22 20 16 13
41 40 33 36 36 33 31 30 30 31 27 26 27 29 27 25 25 22 21 17 15 16
38 36 30 28 28 35 34 28 31 25 24 24 27 26 24 24 22 24 23 19 20 17
34 33 35 29 39 36 32 28 25 22 23 23 25 23 21 22 24 23 21 20 19 15
34 38 39 43 37 34 34 30 27 25 25 25 23 22 21 21 21 20 19 18 15 16
30 34 33 35 35 34 32 27 27 25 23 21 19 19 20 21 21 19 19 16 18 11
25 27 28 32 37 30 25 24 24 23 21 19 19 18 20 21 19 17 18 20 14 11
29 32 31 31 27 24 22 22 20 19 19 19 18 18 18 15 16 16 16 13 10 8
28 28 28 28 26 23 22 21 21 21 22 21 19 18 18 16 15 13 10 8 7 7
32 32 31 29 28 24 24 23 23 23 23 22 21 18 18 17 15 11 10 7 4 5
30 29 29 29 28 27 24 24 24 22 19 19 20 18 17 15 14 13 9 6 5 7
27 28 28 27 26 27 26 25 24 23 19 19 19 17 16 14 13 10 7 4 4 5

GFSNIL_925_spd_057.txt.gz
Wind_Speed
41 40 43 39 37 37 37 37 34 34 35 36 36 33 27 26 27 28 28 32 33 26
37 38 35 37 36 35 38 38 37 35 36 38 38 36 27 25 28 28 29 29 25 25
39 42 40 39 38 35 36 36 38 37 34 35 40 34 28 28 27 27 26 25 24 20
45 51 44 37 37 38 33 36 34 32 28 27 30 28 27 26 28 27 27 24 23 23
40 38 35 36 38 39 40 35 34 39 38 30 32 30 27 30 31 30 28 27 25 23
39 35 37 36 36 40 44 44 36 36 32 31 30 29 32 35 30 30 29 27 24 22
39 39 38 40 41 43 38 40 40 35 31 30 29 30 33 30 28 27 25 22 21 21
38 37 39 38 40 37 36 37 37 32 31 30 28 29 30 29 26 25 23 22 19 17
35 36 37 35 32 33 34 34 32 32 30 27 28 28 27 26 25 24 23 24 18 18
32 30 28 32 32 30 32 33 31 27 25 26 25 22 21 21 21 21 19 19 20 14
28 27 26 26 27 28 27 27 26 23 23 23 20 19 19 18 17 17 17 17 14 13
28 27 27 27 27 26 25 21 21 21 22 23 21 20 19 19 20 19 16 13 10 8
25 28 28 27 26 23 22 22 20 20 18 19 22 20 20 19 19 18 15 11 7 6
24 25 27 26 24 24 22 24 23 22 18 19 19 18 17 16 16 16 13 9 5 3

GFSNIL_925_spd_060.txt.gz
Wind_Speed
37 37 39 39 39 38 38 40 37 32 29 29 29 31 35 31 36 33 33 32 31 33
39 39 35 38 41 41 41 39 36 34 31 30 31 30 33 33 32 28 29 30 28 28
38 40 38 37 39 41 43 43 40 36 33 33 32 32 34 34 31 26 26 27 26 24
41 42 40 41 41 41 41 41 40 38 35 34 32 29 30 32 32 27 25 25 24 24
35 38 46 46 43 37 38 37 41 41 42 37 37 33 30 29 29 26 24 26 26 26
42 42 40 39 36 36 37 37 39 41 37 36 35 33 35 31 31 28 29 31 29 29
39 41 40 37 41 41 39 38 43 36 34 37 36 32 31 29 30 29 27 26 28 28
39 37 34 34 37 40 40 42 42 36 35 37 34 32 30 29 30 27 25 26 24 22
33 34 35 34 34 35 36 37 34 37 37 39 35 33 30 28 28 26 26 24 21 18
32 32 33 31 31 33 33 33 36 35 36 33 30 27 25 25 24 24 22 22 22 22
30 29 27 29 30 29 30 31 33 31 29 27 26 22 21 22 20 21 20 21 25 24
29 26 27 25 27 25 24 23 23 23 24 23 18 19 22 21 21 21 20 21 20 18
22 24 22 21 20 21 21 20 19 18 15 16 22 20 19 21 24 25 22 18 15 12
18 19 20 20 19 21 22 22 21 22 19 21 22 20 19 19 22 24 21 17 13 9

GFSNIL_925_spd_063.txt.gz
Wind_Speed
30 28 26 31 34 35 31 33 37 37 32 28 27 26 24 23 23 25 28 29 35 32
32 33 31 31 33 37 38 37 39 38 35 33 30 27 25 24 24 26 29 32 26 25
35 35 36 32 37 38 38 36 37 40 38 33 31 28 26 25 28 27 28 29 27 27
37 38 37 37 39 41 41 39 38 39 38 37 35 32 29 29 28 30 27 29 29 29
38 37 36 42 44 38 38 35 39 36 32 37 39 37 33 33 35 36 31 30 27 29
36 36 41 43 39 36 32 33 31 32 35 36 40 38 38 40 36 35 32 31 29 33
37 40 39 38 35 36 36 35 35 36 37 36 38 37 40 38 34 34 32 34 32 32
35 34 34 33 34 35 36 38 37 35 33 32 33 35 35 36 35 34 33 32 29 29
30 31 34 32 32 31 33 34 32 34 33 31 35 37 39 37 35 34 33 31 25 24
28 29 30 29 28 30 32 30 33 33 33 34 36 39 36 35 34 32 30 28 27 25
28 28 26 26 28 28 27 29 29 31 35 35 37 36 30 29 28 24 23 25 27 29
24 24 22 22 22 22 25 27 30 29 28 28 27 25 24 30 24 23 23 24 26 27
19 19 20 21 21 22 22 22 18 17 18 19 19 20 28 26 27 28 26 22 21 22
15 16 17 19 18 19 18 17 16 16 14 16 21 25 22 23 28 29 28 27 22 18

GFSNIL_925_spd_066.txt.gz
Wind_Speed
33 29 28 30 31 30 34 36 43 40 37 40 32 31 27 27 23 21 22 25 24 24
35 35 33 32 31 33 32 30 31 35 39 38 31 29 27 28 27 24 24 24 24 27
38 37 37 35 36 37 36 36 35 34 33 34 32 32 31 31 29 28 27 24 24 24
38 39 40 37 38 38 36 38 37 37 36 36 35 35 33 32 31 29 25 23 25 27
33 35 38 40 40 39 41 39 40 40 39 39 38 36 35 35 32 28 25 26 26 31
35 36 38 39 38 38 38 39 39 40 40 40 40 39 38 36 35 37 35 32 30 36
36 38 37 36 36 37 38 38 39 40 39 38 38 38 37 36 35 35 42 41 40 41
37 35 34 34 35 35 36 38 39 38 38 38 37 36 35 33 30 28 31 34 38 40
34 34 36 35 34 33 34 35 35 37 36 35 34 36 36 33 27 28 31 33 36 36
31 32 33 32 32 34 34 31 33 34 33 34 33 34 37 37 37 37 36 36 34 33
30 30 28 29 30 30 29 30 30 30 30 29 30 34 38 39 40 34 34 34 33 32
28 27 27 28 26 25 23 23 25 25 27 31 32 34 34 33 30 28 24 24 26 27
25 26 25 25 23 18 19 19 23 24 22 25 26 25 21 24 27 24 22 18 18 21
20 21 19 17 15 20 22 19 15 13 10 9 10 13 21 27 24 25 24 24 25 25

GFSNIL_925_spd_069.txt.gz
Wind_Speed
31 31 33 34 29 30 31 34 32 33 35 36 37 30 31 28 32 24 23 22 25 23
33 32 31 31 32 29 32 34 38 41 38 36 35 35 33 29 28 27 26 27 29 28
32 34 32 33 34 33 33 35 35 37 39 39 40 37 37 37 32 30 31 29 29 28
34 35 34 33 34 34 33 34 36 38 40 41 41 39 36 36 35 34 34 32 31 30
33 34 36 37 35 34 35 35 38 37 39 40 41 40 40 38 36 36 36 33 31 30
32 34 36 36 36 34 35 34 38 38 40 38 39 39 40 39 39 38 37 36 34 32
34 37 36 35 35 37 36 37 39 40 40 40 40 39 39 39 39 39 38 39 38 37
35 34 34 34 36 37 38 38 37 38 40 42 41 41 41 40 41 41 40 38 35 36
32 34 35 35 35 35 37 38 39 41 39 40 41 41 44 44 37 38 37 35 35 35
33 34 35 34 34 37 38 35 39 38 38 39 39 42 44 43 43 35 33 35 33 35
32 34 33 34 36 35 35 37 36 36 36 35 36 37 39 40 40 35 37 38 35 37
31 32 32 34 36 35 33 32 33 31 30 32 31 30 32 31 35 34 31 29 27 28
27 29 29 30 29 28 28 27 26 25 24 23 23 29 31 30 28 25 18 14 12 13
19 24 26 24 23 24 20 18 15 15 12 13 12 11 12 16 19 19 16 16 18 19

GFSNIL_925_spd_075.txt.gz
Wind_Speed
28 31 31 34 34 31 31 34 35 34 30 34 33 37 32 34 32 32 27 23 36 38
27 30 29 33 33 31 29 28 31 34 34 32 32 33 36 35 32 28 29 34 39 36
30 31 27 31 37 36 35 30 29 30 33 36 38 37 37 36 34 34 34 38 38 38
29 32 32 31 35 37 37 38 36 39 38 38 40 39 42 39 40 40 40 40 39 38
33 30 32 31 35 38 36 38 40 41 41 40 40 41 44 42 38 39 39 40 39 42
35 36 33 32 33 37 40 38 40 40 41 42 42 42 43 43 41 41 42 41 40 41
35 35 37 35 34 36 37 39 39 40 39 42 43 43 43 43 44 45 45 43 43 45
34 35 35 37 35 34 35 38 39 38 40 40 41 41 43 43 43 42 43 42 44 45
32 35 36 35 35 37 38 37 36 38 39 39 42 44 46 44 39 40 41 42 43 44
34 35 35 36 37 38 37 36 40 39 36 38 40 43 45 46 47 39 41 41 39 38
14 28 31 34 36 36 35 37 38 38 39 38 40 38 40 42 46 47 43 41 43 44
19 18 21 28 33 37 34 34 36 33 34 39 42 39 42 41 45 46 44 41 42 43
20 23 13 9 13 23 30 32 30 29 32 35 36 36 37 39 40 38 38 35 31 29
21 18 20 15 13 17 9 21 23 20 12 11 10 15 21 28 32 36 29 20 12 8

GFSNIL_925_spd_078.txt.gz
Wind_Speed
27 27 26 30 27 28 29 32 36 34 30 34 36 39 43 41 35 34 33 33 32 30
28 27 30 29 32 33 30 28 30 32 36 36 34 34 33 34 34 35 36 36 37 34
27 29 32 33 33 33 36 35 37 34 35 34 35 36 35 37 37 38 39 39 37 36
27 29 29 32 35 36 35 36 36 40 39 38 37 38 39 39 41 41 41 42 41 44
29 29 31 28 31 36 37 38 39 40 38 36 38 41 42 41 36 39 38 41 42 46
32 31 30 30 29 32 36 38 37 38 38 39 38 39 42 43 41 42 45 41 40 43
33 32 31 32 30 32 35 35 37 38 38 40 38 39 40 42 43 42 41 41 45 44
35 36 36 35 34 34 32 36 36 35 37 38 40 41 40 39 38 39 40 40 43 45
20 23 29 33 36 36 35 33 33 37 37 38 40 42 44 42 38 38 38 40 41 43
18 26 29 32 32 33 35 35 37 37 38 39 42 43 44 43 45 39 40 40 39 39
12 7 5 24 29 31 32 35 36 37 38 38 41 42 43 45 46 46 45 43 43 43
16 16 12 8 5 12 27 30 33 33 32 35 40 33 40 42 48 45 45 45 44 43
17 16 15 14 12 11 13 13 21 11 10 6 11 13 25 33 36 34 37 37 40 41
20 17 18 16 15 13 9 5 9 12 12 11 11 10 13 14 17 22 22 18 11 9

GFSNIL_925_spd_084.txt.gz
Wind_Speed
14 16 19 21 23 22 27 30 33 34 32 31 31 27 31 34 37 31 31 33 30 32
18 16 16 19 21 25 27 28 33 34 33 31 32 36 31 33 38 33 31 26 23 24
18 17 16 17 19 20 23 24 25 28 30 31 32 36 41 37 37 38 37 35 28 28
17 17 18 20 20 19 19 20 22 24 29 32 32 32 37 35 32 35 33 32 34 35
19 17 18 18 19 19 21 21 23 23 26 29 32 28 28 30 30 33 34 36 32 35
16 19 20 18 17 17 18 19 22 23 25 27 29 31 30 30 31 33 35 36 35 40
20 17 16 15 16 17 18 21 23 25 27 27 28 29 30 32 33 34 36 38 39 39
20 21 19 18 18 17 17 18 18 21 24 26 28 30 31 32 34 37 37 39 40 42
16 17 18 19 20 21 22 22 22 23 23 24 26 27 29 32 33 34 35 37 39 43
6 8 12 16 19 21 23 26 28 28 28 28 29 26 29 32 34 34 34 35 36 35
12 10 8 6 4 5 11 17 23 25 28 28 15 22 27 31 35 37 37 36 37 35
15 13 13 12 10 8 6 5 6 4 2 4 2 6 14 23 24 29 32 23 16 19
17 17 17 16 15 13 11 11 13 18 19 17 14 15 10 8 6 8 8 4 6 13
20 20 18 20 20 18 19 19 20 21 21 22 23 22 18 13 11 10 13 18 23 23

GFSNIL_925_spd_087.txt.gz
Wind_Speed
16 14 14 18 20 23 28 28 31 29 29 27 23 20 19 27 35 37 33 37 33 30
16 15 14 15 19 22 27 30 33 34 31 29 32 35 33 26 33 36 35 36 35 31
16 14 13 14 17 20 22 30 34 34 34 34 34 38 37 30 28 30 36 35 33 29
17 16 14 14 13 17 22 26 28 30 32 33 35 37 37 34 26 27 31 36 34 31
18 18 17 14 15 16 16 17 22 23 27 29 32 32 33 36 34 27 26 31 34 40
18 17 18 17 17 17 16 15 16 17 18 20 26 28 30 33 33 37 38 36 35 35
17 15 16 16 17 18 19 17 17 17 17 18 19 21 26 29 29 31 32 34 35 33
13 13 12 12 13 14 16 18 19 17 17 18 18 19 21 25 29 30 31 32 33 29
8 9 10 10 10 10 11 11 12 15 16 16 21 23 24 26 28 29 30 28 28 29
10 9 5 8 9 11 12 14 14 14 15 15 16 19 24 26 27 23 26 28 29 30
13 13 11 10 9 8 5 5 5 3 5 13 5 11 20 25 27 31 24 15 16 18
15 16 16 15 12 11 11 14 14 12 12 10 13 9 7 9 11 8 7 2 4 7
19 21 20 18 18 15 17 20 20 23 21 18 19 17 11 6 6 9 11 11 13 18
21 22 19 22 22 22 24 25 25 26 25 28 24 23 19 13 12 14 17 20 22 21

GFSNIL_925_spd_090.txt.gz
Wind_Speed
14 11 10 15 20 23 23 28 31 31 37 33 32 31 28 27 27 26 26 25 24 22
14 10 8 13 18 23 25 30 31 29 30 29 30 30 26 25 25 23 25 26 27 23
13 10 9 10 15 21 27 30 31 30 31 31 29 29 28 26 25 26 28 27 25 26
14 11 10 9 12 19 26 30 30 28 27 31 33 32 31 31 26 26 24 28 27 27
14 13 11 11 11 17 22 25 27 32 26 29 32 33 32 29 30 28 24 25 24 27
15 15 14 12 12 13 15 20 25 27 27 28 30 31 33 33 31 34 30 28 24 25
16 14 13 12 13 14 14 15 16 18 21 26 27 28 31 34 31 34 31 31 29 31
15 14 13 12 12 12 14 13 14 16 17 19 21 22 25 27 30 30 28 28 31 31
14 14 14 14 13 11 11 11 11 10 11 13 13 16 21 20 21 23 24 23 24 26
13 12 10 8 8 9 11 12 11 11 12 10 10 18 21 23 20 15 18 21 22 24
15 14 12 13 12 11 11 13 12 11 12 10 3 10 17 20 21 13 5 5 7 9
16 16 14 15 14 14 16 18 17 15 14 11 11 6 1 5 8 9 6 4 4 3
23 24 19 17 18 18 22 26 24 24 21 20 17 13 8 10 13 16 14 12 12 16
26 28 20 22 23 23 25 28 27 28 27 26 25 23 17 14 15 18 19 20 20 19

GFSNIL_925_spd_093.txt.gz
Wind_Speed
15 14 14 12 12 13 21 25 31 37 38 38 39 38 37 34 30 27 27 25 23 22
15 13 11 9 12 16 18 22 26 32 37 39 40 43 36 27 26 25 25 24 24 24
15 12 9 10 15 17 18 22 25 25 26 31 35 41 39 29 26 22 20 20 22 21
15 13 11 10 13 19 22 26 25 26 27 28 30 32 31 28 26 24 22 29 25 25
15 15 12 10 13 20 25 28 29 30 28 28 28 27 26 26 28 28 27 26 22 25
15 15 12 12 13 20 23 26 28 28 29 28 29 30 29 29 28 27 27 26 26 25
15 16 14 13 15 16 19 23 25 26 25 26 28 28 29 29 28 27 27 26 27 25
13 13 12 12 11 12 16 17 18 19 22 23 25 26 28 29 31 31 25 27 25 28
11 11 10 11 12 10 9 8 9 14 16 19 17 20 24 24 24 26 22 23 26 26
15 17 15 11 13 11 12 10 8 5 12 13 9 14 21 24 15 17 18 16 13 11
14 15 14 15 16 16 18 17 15 12 9 8 4 7 13 15 10 4 3 3 4 7
16 17 16 18 16 14 17 19 18 15 13 11 10 5 2 10 12 10 10 8 4 2
24 25 25 23 23 20 22 24 23 24 22 20 17 13 7 10 16 18 17 15 15 16
27 32 30 28 29 28 26 28 29 31 28 27 25 23 18 14 18 20 21 21 21 21

GFSNIL_925_spd_096.txt.gz
Wind_Speed
20 16 15 15 16 19 20 22 28 31 31 36 39 38 36 37 37 39 36 35 32 28
19 15 11 13 14 14 17 17 23 27 33 35 40 36 37 32 37 41 35 35 32 30
14 13 12 12 13 13 14 12 17 23 31 28 34 36 34 33 30 35 34 34 34 28
14 13 12 11 13 14 11 12 15 21 21 30 35 37 35 31 34 32 30 29 29 23
15 13 13 12 12 13 12 15 18 18 18 16 26 36 33 31 32 30 30 27 25 25
15 14 12 11 12 13 15 20 20 19 21 22 20 28 31 35 31 29 27 26 27 25
16 14 13 12 13 15 17 21 21 20 20 21 18 17 18 23 27 24 26 25 25 27
14 18 15 17 15 16 18 20 21 22 23 23 23 22 24 25 27 30 29 26 24 23
11 14 15 14 15 16 18 19 20 23 22 19 21 24 25 25 26 27 26 25 24 25
13 14 13 13 15 13 13 18 20 20 20 17 11 16 24 25 21 22 20 21 19 18
16 17 16 17 17 16 17 17 19 18 16 14 10 7 11 19 15 16 12 10 11 12
14 16 18 21 19 18 21 22 21 19 17 16 15 12 14 14 16 16 16 13 9 4
24 21 22 21 23 23 26 27 25 27 24 24 21 16 11 11 17 21 22 21 22 19
31 30 26 25 24 28 30 33 34 35 33 33 31 28 22 20 23 27 29 28 29 29

GFSNIL_925_spd_099.txt.gz
Wind_Speed
30 31 29 31 31 29 26 24 24 33 33 35 35 38 39 38 38 39 39 39 34 27
27 27 24 27 28 27 25 21 21 27 33 32 36 38 40 37 37 38 40 39 37 29
25 22 19 20 21 18 15 15 20 24 30 31 35 37 37 31 35 35 36 38 36 34
19 18 16 15 12 11 13 14 17 20 25 28 33 35 35 28 32 35 36 36 37 35
17 13 11 8 7 9 11 13 13 15 18 21 24 32 32 32 32 34 31 33 33 32
17 14 13 13 8 10 12 13 11 15 15 17 22 31 31 35 32 34 31 31 34 34
14 13 13 11 10 13 14 13 14 13 12 12 12 24 27 30 34 29 34 33 33 35
14 13 13 12 12 14 15 14 15 14 12 11 12 15 24 28 33 33 31 30 26 24
10 13 11 13 12 15 14 14 15 15 14 14 12 13 15 14 18 23 20 20 21 22
15 14 15 17 17 16 15 14 15 15 15 12 10 16 18 18 17 17 18 20 25 23
16 16 15 19 19 19 19 20 20 17 14 11 5 7 16 21 18 20 16 15 16 20
24 21 21 22 21 18 20 22 22 19 17 17 15 11 17 23 22 21 18 12 10 11
29 25 30 28 27 24 26 27 26 27 25 22 19 13 14 22 27 28 26 22 21 14
34 26 27 32 32 32 31 31 30 32 33 33 28 21 18 20 24 28 29 28 28 25

GFSNIL_925_spd_102.txt.gz
Wind_Speed
32 32 32 35 32 29 28 32 32 33 33 35 35 35 33 33 34 35 35 35 33 32
32 31 31 31 30 31 32 29 27 29 31 32 33 35 35 34 33 35 37 36 36 35
31 28 27 25 27 26 27 25 23 24 28 32 34 35 35 34 34 35 39 35 36 34
25 24 23 23 20 20 19 18 20 22 24 27 29 33 33 33 36 39 35 37 36 38
26 25 22 20 17 14 13 13 15 17 20 22 25 28 32 31 30 34 35 33 37 37
20 22 17 16 10 5 6 10 13 14 13 16 19 23 29 34 31 29 31 33 36 36
14 15 15 10 9 5 10 11 10 10 11 13 11 16 24 29 31 32 30 33 37 37
8 11 13 12 10 10 11 10 8 10 9 6 7 10 12 27 23 28 29 30 31 34
17 5 8 8 8 8 9 8 8 8 9 6 3 1 5 10 21 28 29 27 28 26
24 15 9 13 16 13 11 10 8 6 4 2 4 7 5 6 6 9 17 21 22 22
28 22 16 12 18 18 16 15 13 11 9 8 7 4 10 11 8 9 9 11 13 16
31 27 24 22 19 23 24 22 20 18 15 14 13 6 7 13 10 11 9 6 7 11
33 32 27 23 22 23 28 29 26 27 24 22 19 13 11 15 18 20 19 17 14 10
31 32 28 27 27 27 23 30 32 31 30 31 26 21 18 18 22 25 26 26 25 19

GFSNIL_925_spd_105.txt.gz
Wind_Speed
29 31 27 28 26 27 29 29 28 34 35 36 34 34 34 32 34 34 33 33 33 28
28 30 31 30 26 26 29 31 32 31 31 31 30 30 31 32 30 29 33 34 33 33
27 29 27 26 27 28 28 29 29 28 26 25 26 28 30 30 31 30 32 35 34 33
24 22 22 22 24 25 26 25 23 24 22 22 25 27 30 30 30 32 33 31 33 35
17 20 21 22 22 20 19 18 17 17 16 18 22 24 29 30 33 35 35 35 35 38
14 19 21 21 20 17 14 12 11 13 16 17 18 20 26 28 28 35 35 31 33 37
8 15 18 17 17 13 9 10 10 10 10 9 11 14 19 23 29 31 34 34 38 39
21 5 9 10 11 9 7 5 6 6 6 6 8 10 15 18 22 28 24 26 29 32
26 20 16 8 6 7 10 9 8 7 7 5 4 7 8 8 11 16 26 24 27 30
33 30 26 16 10 8 7 9 8 6 2 0 5 8 10 5 5 3 1 5 22 25
31 33 32 30 27 19 11 12 10 8 7 6 8 7 5 4 2 8 10 9 8 22
30 30 32 32 31 29 24 21 17 15 13 12 14 13 6 3 9 11 12 11 8 7
33 30 29 29 32 29 28 27 21 27 25 23 20 17 9 8 13 18 20 18 15 12
35 35 32 30 32 28 33 28 25 26 31 33 29 27 19 16 18 21 25 27 27 25

GFSNIL_925_spd_108.txt.gz
Wind_Speed
27 26 25 26 26 27 26 26 27 35 33 34 35 35 35 34 34 33 34 33 32 28
25 28 27 27 27 27 27 27 28 28 26 31 32 32 32 31 31 31 34 33 34 33
23 25 28 28 30 29 29 28 25 25 26 28 28 29 29 28 29 29 29 31 28 27
20 24 25 26 28 26 24 24 20 23 27 24 22 22 24 26 26 28 30 31 31 32
14 18 21 23 23 22 22 17 17 21 19 19 18 18 19 22 26 29 28 30 31 32
18 10 16 18 17 17 15 15 15 14 15 14 14 15 16 18 21 22 26 30 35 32
27 16 10 13 16 16 15 13 12 11 10 10 10 11 13 16 19 22 25 29 31 33
31 25 22 17 14 10 8 8 7 7 7 7 8 9 11 11 11 16 24 30 33 35
34 30 28 22 22 17 16 14 10 9 8 5 5 7 8 7 8 11 14 19 24 29
38 32 30 30 28 26 22 17 17 14 10 8 9 11 7 6 6 6 8 12 13 13
35 28 32 34 35 33 30 29 26 24 22 17 19 15 9 3 0 4 7 10 10 6
27 34 30 29 30 33 33 34 34 34 31 29 32 24 12 5 6 9 13 14 14 11
31 30 32 32 29 29 29 32 36 35 34 34 36 36 22 13 13 17 17 19 19 20
36 34 32 33 33 33 31 31 30 36 33 34 37 37 36 26 22 21 22 26 27 27

GFSNIL_925_spd_111.txt.gz
Wind_Speed
31 31 30 29 26 27 28 30 29 37 34 37 36 35 34 32 36 35 35 32 30 28
25 28 26 24 25 26 27 29 32 33 36 33 35 33 31 31 33 32 33 33 32 31
22 26 25 26 25 26 25 30 30 29 31 31 31 30 29 27 27 29 29 29 29 30
10 20 23 24 22 22 25 28 28 26 25 26 26 27 26 25 25 26 25 26 26 26
12 13 16 18 21 23 22 22 22 23 23 23 25 23 20 22 21 22 21 21 25 28
27 19 10 14 15 16 17 19 21 21 21 19 17 16 13 14 16 17 18 20 23 26
30 27 25 18 16 13 12 15 15 15 14 12 9 7 6 8 11 14 18 20 21 27
32 31 30 28 26 25 23 21 20 19 18 15 10 5 3 6 8 11 14 17 22 27
33 37 37 30 28 28 27 25 24 23 21 19 14 12 2 6 8 9 13 14 16 16
36 30 41 32 34 35 30 31 32 25 22 23 25 21 8 2 3 6 6 8 12 16
34 32 40 39 39 37 33 37 32 33 29 29 34 25 17 7 5 7 10 14 16 14
38 38 35 32 34 27 26 31 32 31 32 33 36 31 21 16 14 14 18 20 25 20
34 34 34 31 30 28 30 31 31 32 32 28 33 33 30 24 22 24 23 25 28 32
36 35 33 31 32 28 29 28 30 32 32 32 35 34 33 29 28 23 23 25 26 31

GFSNIL_925_spd_114.txt.gz
Wind_Speed
29 34 38 34 31 30 27 30 33 39 38 38 36 35 36 35 34 33 33 31 28 26
23 29 34 33 29 26 27 28 29 34 34 35 35 36 35 34 34 33 35 32 30 27
20 23 29 25 24 25 24 27 29 31 35 34 35 35 35 33 31 31 30 28 28 27
13 17 22 24 23 24 23 24 25 29 29 31 32 33 32 29 29 29 24 25 26 27
19 11 14 17 21 20 20 20 22 23 28 28 28 27 29 28 25 24 22 24 25 25
31 29 26 9 12 15 17 17 18 20 18 16 15 18 20 20 21 20 21 18 17 19
35 31 29 28 24 22 22 21 22 22 21 20 17 16 14 13 12 11 11 11 11 15
33 35 34 35 31 30 32 30 28 28 25 20 17 11 7 8 6 4 4 7 8 9
35 39 38 41 34 36 35 34 32 30 26 23 20 13 7 6 8 4 1 4 7 9
38 40 35 39 41 41 35 35 37 36 34 33 26 18 13 10 11 8 8 9 12 11
40 40 39 43 38 40 30 37 34 35 33 36 34 25 19 18 16 15 15 15 18 15
38 37 37 41 36 36 34 39 40 41 38 37 36 31 24 20 20 19 20 19 23 20
36 34 36 33 28 31 34 34 31 38 35 34 35 37 32 27 24 23 18 19 22 27
33 33 33 31 32 29 30 33 30 29 32 33 38 36 34 32 29 21 19 21 22 24

GFSNIL_925_spd_117.txt.gz
Wind_Speed
27 27 30 33 35 36 32 33 32 35 37 38 39 36 34 33 33 34 34 33 31 31
29 29 31 35 35 36 40 33 30 31 36 37 35 37 36 34 35 35 35 33 34 27
30 30 33 37 36 34 37 27 27 30 34 35 36 35 34 32 31 32 33 32 29 31
25 25 29 36 34 32 34 28 26 29 32 33 34 33 33 31 29 32 30 29 30 28
20 17 16 10 25 26 26 26 25 28 28 29 29 28 29 27 26 29 27 27 26 24
21 26 35 33 30 17 6 9 9 11 14 17 21 25 26 26 26 25 27 23 20 16
34 38 38 38 39 36 31 29 25 24 23 20 18 18 18 21 22 20 19 19 16 11
38 40 41 41 40 39 40 36 32 29 29 27 26 19 14 16 16 16 13 10 9 5
39 42 40 42 41 43 42 39 39 38 35 35 33 23 18 15 14 14 11 9 4 2
39 44 42 40 40 43 41 37 40 38 36 41 39 31 26 20 18 20 17 14 10 8
44 40 39 38 38 40 37 34 41 39 39 41 44 36 31 29 24 24 20 25 22 16
37 38 36 35 33 36 30 37 39 34 40 37 46 45 35 33 30 25 27 27 31 25
33 34 33 32 33 33 33 34 38 38 33 38 38 47 38 39 33 28 24 22 25 30
33 33 33 33 36 33 33 34 32 33 39 40 39 33 35 36 29 23 21 27 28 25

GFSNIL_925_spd_120.txt.gz
Wind_Speed
30 30 30 30 33 35 33 30 30 38 43 45 45 39 38 34 35 36 37 34 33 33
29 29 31 33 33 36 40 36 36 35 40 45 42 41 36 33 35 36 38 35 36 33
28 30 31 32 35 37 41 40 37 30 37 39 38 41 36 34 32 34 35 34 33 34
22 21 21 24 31 40 39 39 39 32 22 19 31 38 40 31 33 32 32 31 31 33
25 23 23 21 21 8 35 37 35 31 33 31 44 39 36 33 32 32 29 31 30 30
26 27 28 26 28 33 33 32 24 5 3 10 15 27 31 33 33 32 30 27 30 26
34 31 28 29 38 36 39 44 36 31 28 26 16 8 11 31 29 26 25 26 19 17
32 31 30 40 41 42 47 52 36 37 38 37 36 27 21 27 28 28 28 26 21 20
35 37 37 47 46 49 49 41 38 46 46 43 41 38 29 31 31 29 26 25 22 14
39 39 44 43 44 45 40 41 47 46 44 44 45 40 39 41 40 35 35 30 27 23
37 39 40 41 40 49 37 42 42 44 43 47 50 43 37 46 44 33 42 37 36 31
36 37 39 38 39 43 34 41 43 40 51 38 50 47 51 47 36 27 41 31 37 38
34 37 36 36 36 32 31 32 38 36 42 39 42 43 46 34 39 36 35 37 37 40
35 33 33 30 32 31 32 33 31 33 36 38 38 39 38 37 31 27 29 28 31 36

GFSNIL_925_spd_123.txt.gz
Wind_Speed
28 27 27 29 30 34 35 35 32 34 32 32 33 38 40 40 35 35 49 41 34 34
28 26 26 29 30 33 35 36 36 32 32 35 34 37 39 37 36 34 42 37 45 43
27 26 25 27 29 31 35 35 37 37 33 35 36 36 37 36 36 33 34 35 37 34
24 20 16 14 15 18 24 40 40 33 30 32 34 36 34 32 26 28 36 35 35 33
25 24 20 19 17 18 20 12 9 17 18 24 27 28 32 32 33 43 41 34 32 34
30 30 28 27 27 26 26 26 24 23 22 18 11 9 12 27 27 27 36 31 33 33
35 32 32 32 31 30 34 36 35 36 35 35 30 25 12 10 26 32 28 15 19 18
34 35 33 34 33 35 41 38 40 44 43 40 48 45 31 31 23 23 28 26 21 21
37 37 37 38 33 40 42 40 42 46 45 43 49 49 44 44 40 37 32 32 29 23
35 36 35 34 36 41 45 39 48 44 47 58 52 45 47 40 52 39 42 40 30 34
34 35 35 36 37 34 35 38 38 38 38 48 46 48 50 44 42 38 45 46 42 40
36 34 35 35 35 34 33 36 37 38 43 43 46 49 43 42 39 39 39 42 44 45
31 32 31 31 31 31 34 33 34 39 42 41 43 49 47 40 33 34 29 30 33 38
34 34 33 33 35 32 32 35 36 37 41 44 44 45 44 43 39 31 29 33 35 38

GFSNIL_925_spd_126.txt.gz
Wind_Speed
27 25 26 26 27 28 27 27 28 29 29 32 34 34 32 25 29 38 37 33 19 23
26 24 25 29 29 28 28 28 29 28 29 27 27 29 28 25 26 29 33 28 27 21
27 25 23 21 22 21 22 23 29 32 31 30 28 28 27 28 27 26 28 30 33 35
29 27 24 22 19 18 18 19 23 25 30 31 29 26 26 26 27 26 26 33 38 36
30 29 28 27 26 25 23 23 22 17 14 8 8 14 18 21 22 25 27 28 33 36
30 31 31 30 30 30 30 32 33 31 29 22 14 11 4 5 10 11 9 16 25 30
35 30 35 32 34 36 36 37 37 35 31 31 30 27 20 20 24 20 14 13 7 3
35 33 32 37 38 40 40 38 37 37 38 37 42 39 33 36 34 33 31 27 26 29
35 36 36 33 40 40 37 41 43 43 43 42 42 43 45 39 40 43 36 30 32 29
34 35 34 35 34 36 39 40 40 44 44 45 43 46 42 41 42 40 39 33 35 37
33 33 32 33 37 35 36 36 38 40 42 43 47 45 41 40 42 40 38 37 38 37
30 31 34 34 32 32 31 34 37 37 39 42 46 47 41 38 32 29 38 41 46 40
29 30 31 31 30 30 28 30 33 37 38 39 41 45 41 36 30 32 29 35 37 44
31 30 29 28 30 27 28 29 31 32 35 38 40 40 39 37 34 29 28 31 32 33